[[{"header":{"parameterUnit":"m.s-1","parameterCategory":1,"la1":30.2991,"la2":30.254,"lo1":-89.0895,"lo2":-89.0444,"dy":0.0017,"dx":0.0017,"nx":28,"ny":28,"refTime":"2024-05-07T03:00:00:Z","depth":0,"parameterNumber":2,"parameterNumberName":"U-component_of_WINDS"},"data":[0,0,0,0,0,0,0,0,0,0,0,0,0,0,0,0,0,0,0,0,0,0,0,0,0,0,0,0,0,0,0,0,0,0,0,0,0,0,0,0,0,0,0,0,0,0,0,0,0,0,0,0,0,0,0,0,0,0,-1.9452,-1.9453,0,-1.952,-1.9521,-1.9521,-1.9554,-1.9554,-1.9554,-1.9554,-1.9623,-1.9625,-1.9627,0,0,0,0,0,0,0,0,0,0,0,0,0,-1.9354,-1.9355,-1.9452,-1.9453,-1.9454,-1.952,-1.9521,-1.9522,-1.9554,-1.9554,-1.9554,-1.9554,-1.9623,-1.9625,-1.9627,0,0,0,0,0,0,0,0,0,0,0,0,0,-1.9406,-1.9356,-1.9452,-1.9478,-1.9481,-1.9519,-1.9521,-1.9522,-1.9554,-1.9554,-1.9554,-1.9554,-1.9622,-1.9625,-1.9627,-1.9645,0,0,-1.9636,-1.9637,0,0,0,0,0,0,0,0,-1.9403,-1.941,-1.9473,-1.9476,-1.948,-1.9529,-1.9511,-1.9563,-1.9554,-1.9526,-1.9554,-1.9554,-1.9592,-1.9597,-1.961,-1.9648,-1.9651,-1.9636,-1.9638,-1.9639,-1.964,0,0,0,0,0,0,0,-1.94,-1.9407,-1.9479,-1.9474,-1.9478,-1.9487,-1.9495,-1.9521,-1.9558,-1.9529,-1.9531,-1.9539,-1.9594,-1.9607,-1.9612,-1.9652,-1.9636,-1.9639,-1.964,-1.9641,-1.9711,-1.9712,0,0,0,0,0,0,-1.9391,-1.9404,-1.9477,-1.9481,-1.9441,-1.9489,-1.9497,-1.9513,-1.9558,-1.9565,-1.9539,-1.954,-1.9602,-1.9608,-1.9614,-1.9639,-1.9639,-1.9642,-1.9643,-1.9711,-1.9711,-1.9712,0,0,0,0,0,0,-1.9389,-1.9398,-1.9474,-1.9443,-1.9454,-1.9491,-1.9508,-1.9514,-1.9528,-1.9566,-1.9573,-1.9546,-1.9602,-1.961,-1.9638,-1.9642,-1.9643,-1.9645,-1.9711,-1.9711,-1.9712,-1.9688,0,0,0,0,0,0,-1.9386,-1.9397,-1.9403,-1.9443,-1.9455,-1.9496,-1.9508,-1.9516,-1.9532,-1.9535,-1.9574,-1.958,-1.9603,-1.9633,-1.964,-1.9646,-1.9648,-1.9711,-1.9711,-1.9711,-1.9689,-1.9688,-1.9687,0,0,0,0,0,-1.9383,-1.9393,-1.9403,-1.9412,-1.9464,-1.9496,-1.9503,-1.9528,-1.9533,-1.954,-1.9565,-1.9579,-1.9641,-1.9636,-1.9644,-1.965,-1.9711,-1.9711,-1.9711,-1.9689,-1.9688,-1.9687,0,0,0,0,0,0,-1.9352,-1.9399,-1.941,-1.9434,-1.9461,-1.9501,-1.9511,-1.9526,-1.9552,-1.9553,-1.9584,-1.9593,-1.9618,-1.9637,-1.9631,-1.9671,-1.9677,-1.9679,-1.9657,-1.9656,-1.9655,-1.965,-1.965,0,0,0,0,0,-1.9348,-1.937,-1.941,-1.9427,-1.944,-1.9473,-1.9488,-1.9506,-1.9535,-1.9546,-1.9573,-1.9601,-1.9627,-1.9643,-1.9668,-1.9692,-1.9702,-1.9701,-1.97,-1.9699,-1.97,-1.9716,-1.9716,-1.9713,-1.9713,-1.9713,0,0,-1.934,-1.9368,-1.938,-1.9421,-1.9444,-1.9467,-1.9482,-1.9505,-1.9522,-1.955,-1.9577,-1.9598,-1.9632,-1.9658,-1.9671,-1.9674,-1.9703,-1.9699,-1.9698,-1.97,-1.9716,-1.9717,-1.9717,-1.9713,-1.9713,-1.9713,0,0,-1.9336,-1.936,-1.9377,-1.94,-1.9435,-1.9458,-1.9462,-1.9501,-1.9516,-1.9545,-1.9566,-1.9588,-1.9631,-1.9655,-1.9672,-1.9681,-1.9696,-1.9689,-1.9683,-1.9698,-1.9698,-1.9699,-1.9703,-1.9704,-1.969,-1.969,-1.969,0,-1.9322,-1.9356,-1.9384,-1.9406,-1.9425,-1.9452,-1.9471,-1.9492,-1.9533,-1.9546,-1.955,-1.9606,-1.9631,-1.9663,-1.9666,-1.9679,-1.9686,-1.9684,-1.9696,-1.9697,-1.9698,-1.9702,-1.9703,-1.9689,-1.9689,-1.9689,-1.9689,0,-1.9337,-1.9361,-1.9371,-1.9411,-1.9431,-1.9451,-1.9483,-1.95,-1.9517,-1.954,-1.957,-1.96,-1.9634,-1.9643,-1.9659,-1.9679,-1.9681,-1.969,-1.9696,-1.9696,-1.9701,-1.9702,-1.9687,-1.9688,-1.9688,-1.9688,0,0,-1.9314,-1.9371,-1.9374,-1.9394,-1.9435,-1.9455,-1.9477,-1.951,-1.9525,-1.9553,-1.9573,-1.9611,-1.9621,-1.9641,-1.9661,-1.9674,-1.9681,-1.9682,-1.9684,-1.9681,-1.9706,-1.9698,-1.9699,-1.9691,-1.9692,-1.9692,-1.9703,0,-1.9316,-1.9357,-1.9385,-1.9415,-1.9438,-1.9466,-1.9486,-1.9514,-1.9537,-1.9561,-1.9586,-1.9612,-1.9623,-1.9635,-1.965,-1.9677,-1.9686,-1.9676,-1.9711,-1.9712,-1.9701,-1.9701,-1.9693,-1.9701,-1.9705,-1.9705,-1.9705,0,-1.9324,-1.9352,-1.9385,-1.9427,-1.9437,-1.9454,-1.9488,-1.951,-1.9544,-1.956,-1.9584,-1.9604,-1.9631,-1.9636,-1.9674,-1.9667,-1.9683,-1.9699,-1.97,-1.9703,-1.9708,-1.9705,-1.9705,-1.9706,-1.9708,-1.9708,-1.9708,0,-1.9304,-1.9351,-1.9377,-1.9393,-1.9441,-1.9453,-1.9474,-1.9508,-1.9527,-1.9557,-1.957,-1.9602,-1.962,-1.9645,-1.9675,-1.9676,-1.971,-1.9717,-1.9724,-1.9723,-1.9729,-1.9728,-1.9731,-1.974,-1.974,-1.974,-1.974,0,-1.9304,-1.9323,-1.9369,-1.9385,-1.9408,-1.9441,-1.9463,-1.9486,-1.9517,-1.9539,-1.9565,-1.9585,-1.9623,-1.9649,-1.9672,-1.97,-1.9708,-1.9722,-1.9728,-1.9719,-1.9718,-1.973,-1.973,-1.974,-1.974,-1.974,-1.974,0,-1.9285,-1.9317,-1.9347,-1.9392,-1.9403,-1.9418,-1.9457,-1.9474,-1.9499,-1.9527,-1.9535,-1.9575,-1.9606,-1.9639,-1.9681,-1.9697,-1.9724,-1.9733,-1.9713,-1.9716,-1.9721,-1.972,-1.9732,-1.9735,-1.9742,-1.9742,-1.9742,0,-1.9282,-1.9298,-1.9344,-1.9361,-1.9382,-1.9408,-1.9428,-1.9462,-1.9481,-1.9523,-1.9535,-1.9569,-1.9597,-1.9647,-1.9679,-1.9713,-1.9722,-1.9724,-1.9727,-1.9718,-1.9722,-1.9721,-1.9723,-1.9722,-1.9722,-1.9721,-1.9721,0,-1.9275,-1.929,-1.9317,-1.9351,-1.9374,-1.9402,-1.9431,-1.9444,-1.9483,-1.9505,-1.9537,-1.956,-1.9604,-1.9637,-1.9675,-1.9698,-1.9716,-1.9721,-1.9724,-1.9715,-1.9703,-1.971,-1.9709,-1.972,-1.972,-1.972,-1.972,-1.972,-1.9264,-1.928,-1.9315,-1.9346,-1.9372,-1.9399,-1.9418,-1.9446,-1.9474,-1.9512,-1.9531,-1.9564,-1.96,-1.9653,-1.9675,-1.9702,-1.9708,-1.9712,-1.9713,-1.9714,-1.9712,-1.9699,-1.9709,-1.9709,-1.971,-1.971,-1.971,0,-1.9258,-1.9283,-1.931,-1.9351,-1.9375,-1.9392,-1.9425,-1.9445,-1.9474,-1.9505,-1.9534,-1.9572,-1.9606,-1.9642,-1.9678,-1.9693,-1.9702,-1.9701,-1.97,-1.9705,-1.9705,-1.9699,-1.9693,-1.9693,-1.9693,-1.9693,-1.9693,-1.9693,-1.9257,-1.9285,-1.9306,-1.9347,-1.9373,-1.9405,-1.9423,-1.9449,-1.9475,-1.9517,-1.9545,-1.9569,-1.9603,-1.9642,-1.9674,-1.9684,-1.9696,-1.9692,-1.9704,-1.9704,-1.9705,-1.9706,-1.97,-1.9694,-1.9694,-1.9702,-1.9702,-1.9702]},{"header":{"parameterUnit":"m.s-1","parameterCategory":1,"la1":30.2991,"la2":30.254,"lo1":-89.0895,"lo2":-89.0444,"dy":0.0017,"dx":0.0017,"nx":28,"ny":28,"refTime":"2024-05-07T03:00:00:Z","depth":0,"parameterNumber":3,"parameterNumberName":"V-component_of_WINDS"},"data":[0,0,0,0,0,0,0,0,0,0,0,0,0,0,0,0,0,0,0,0,0,0,0,0,0,0,0,0,0,0,0,0,0,0,0,0,0,0,0,0,0,0,0,0,0,0,0,0,0,0,0,0,0,0,0,0,0,0,5.8143,5.8143,0,5.8121,5.8121,5.8121,5.8042,5.804,5.8038,5.8037,5.8015,5.8017,5.8018,0,0,0,0,0,0,0,0,0,0,0,0,0,5.8119,5.812,5.8143,5.8143,5.8143,5.8121,5.8121,5.8121,5.8042,5.804,5.8038,5.8036,5.8015,5.8016,5.8018,0,0,0,0,0,0,0,0,0,0,0,0,0,5.8117,5.812,5.8143,5.8101,5.8097,5.8121,5.8121,5.812,5.8043,5.804,5.8037,5.8035,5.8015,5.8016,5.8018,5.8082,0,0,5.8023,5.8024,0,0,0,0,0,0,0,0,5.8117,5.8118,5.8107,5.8104,5.8099,5.8082,5.8104,5.8107,5.8043,5.8063,5.8037,5.8034,5.804,5.8039,5.8041,5.8081,5.808,5.8023,5.8024,5.8025,5.8025,0,0,0,0,0,0,0,5.8117,5.8118,5.8134,5.8107,5.8103,5.8084,5.808,5.8105,5.8067,5.8061,5.8056,5.8054,5.8037,5.804,5.804,5.8079,5.8023,5.8024,5.8025,5.8026,5.8172,5.8175,0,0,0,0,0,0,5.8123,5.8119,5.8135,5.8134,5.8102,5.8086,5.8083,5.809,5.8066,5.806,5.8056,5.8051,5.8038,5.8038,5.8039,5.8113,5.8025,5.8026,5.8027,5.8169,5.8172,5.8176,0,0,0,0,0,0,5.8123,5.8125,5.8136,5.8125,5.8125,5.809,5.8099,5.8091,5.8093,5.8063,5.8056,5.8066,5.8036,5.8036,5.8072,5.8111,5.8027,5.8028,5.8166,5.817,5.8174,5.8261,0,0,0,0,0,0,5.8123,5.8126,5.8149,5.8126,5.8126,5.8169,5.8101,5.8092,5.8096,5.8088,5.8069,5.8064,5.8034,5.807,5.8073,5.8112,5.803,5.8162,5.8168,5.8173,5.8255,5.8268,5.8279,0,0,0,0,0,5.8122,5.8174,5.8151,5.8153,5.8154,5.8171,5.8171,5.8135,5.81,5.8123,5.8104,5.8064,5.8106,5.8074,5.8077,5.8117,5.8159,5.8166,5.8172,5.8249,5.8265,5.8279,0,0,0,0,0,0,5.8203,5.8171,5.8144,5.819,5.8184,5.8158,5.8187,5.8153,5.8158,5.815,5.8106,5.8102,5.8145,5.8134,5.8099,5.8178,5.8126,5.8134,5.8184,5.8199,5.8211,5.8213,5.8031,0,0,0,0,0,5.8226,5.8243,5.8214,5.8257,5.8256,5.8222,5.8228,5.8201,5.8193,5.8191,5.8173,5.8168,5.818,5.8188,5.8197,5.8253,5.8248,5.8282,5.8294,5.8304,5.8312,5.8342,5.8357,5.8197,5.8197,5.8197,0,0,5.8275,5.8259,5.8272,5.8273,5.8265,5.8285,5.822,5.8243,5.8257,5.8194,5.8227,5.8214,5.8205,5.8251,5.827,5.8244,5.8355,5.8313,5.8321,5.8323,5.835,5.8365,5.8379,5.8201,5.8201,5.82,0,0,5.8372,5.8362,5.8397,5.8391,5.838,5.8358,5.8367,5.8346,5.8335,5.8367,5.8321,5.8337,5.8358,5.8354,5.8355,5.8453,5.8417,5.8457,5.8522,5.8552,5.8564,5.8575,5.8611,5.8625,5.8464,5.8464,5.8464,0,5.8434,5.846,5.842,5.8446,5.8449,5.8393,5.843,5.8426,5.8419,5.8422,5.8392,5.8418,5.8408,5.8453,5.8477,5.8479,5.8489,5.8459,5.8565,5.8576,5.8586,5.862,5.8633,5.8469,5.8469,5.8468,5.8468,0,5.8537,5.8556,5.8586,5.8581,5.8587,5.8618,5.8584,5.8595,5.8568,5.8549,5.8583,5.8569,5.8575,5.8584,5.8557,5.8626,5.8609,5.8573,5.852,5.8607,5.8638,5.8651,5.8476,5.8475,5.8473,5.8472,0,0,5.8685,5.8658,5.867,5.8668,5.8652,5.8667,5.8696,5.8702,5.8713,5.871,5.8734,5.8754,5.8721,5.8722,5.8694,5.872,5.8801,5.8681,5.868,5.8705,5.8877,5.8905,5.8921,5.8777,5.8779,5.8781,5.8878,0,5.8779,5.8827,5.8793,5.8847,5.8865,5.8813,5.8839,5.8833,5.8816,5.8829,5.8811,5.8826,5.878,5.8781,5.8804,5.8786,5.8835,5.8778,5.88,5.8801,5.8805,5.8937,5.8966,5.9059,5.889,5.8892,5.8893,0,5.8894,5.8898,5.8954,5.8936,5.8943,5.8966,5.897,5.8983,5.8975,5.8961,5.8963,5.893,5.8958,5.8906,5.8945,5.8908,5.8914,5.8907,5.891,5.8911,5.8853,5.8943,5.9087,5.9102,5.8912,5.8911,5.8909,0,5.8999,5.9017,5.9053,5.9053,5.9032,5.9051,5.9043,5.9033,5.9039,5.9042,5.9046,5.9053,5.9057,5.9063,5.9032,5.8997,5.9076,5.9021,5.9067,5.9068,5.9086,5.9086,5.9235,5.9089,5.9089,5.9089,5.9088,0,5.9108,5.9145,5.91,5.9122,5.9163,5.9123,5.9165,5.9152,5.9143,5.9163,5.9118,5.9138,5.9096,5.9111,5.9088,5.9125,5.9126,5.9117,5.911,5.9122,5.9123,5.9126,5.9119,5.9092,5.9092,5.9091,5.909,0,5.9231,5.9202,5.9239,5.9217,5.9213,5.9243,5.9225,5.9246,5.9226,5.9252,5.9256,5.9226,5.9242,5.9212,5.9224,5.9208,5.9261,5.9243,5.9263,5.9259,5.9307,5.9303,5.9464,5.9483,5.9324,5.9326,5.9327,0,5.9303,5.933,5.9312,5.9322,5.9317,5.9334,5.934,5.9303,5.9311,5.9306,5.9328,5.934,5.9348,5.9377,5.9356,5.9366,5.9349,5.9405,5.935,5.9361,5.9352,5.9351,5.9354,5.9417,5.9418,5.942,5.9421,0,5.9434,5.9419,5.943,5.9436,5.9445,5.9449,5.9449,5.946,5.942,5.9432,5.9448,5.9455,5.9468,5.9481,5.9486,5.9479,5.9445,5.9439,5.945,5.9462,5.9473,5.9469,5.9295,5.9435,5.9434,5.9433,5.9432,5.9431,5.9535,5.9557,5.9548,5.9562,5.9559,5.956,5.9579,5.9562,5.9575,5.9582,5.956,5.9582,5.9575,5.9578,5.9574,5.9591,5.9567,5.9583,5.9587,5.9592,5.96,5.947,5.9592,5.9592,5.9591,5.9591,5.959,0,5.9665,5.9657,5.967,5.9672,5.9684,5.965,5.9648,5.966,5.968,5.9676,5.9686,5.9705,5.9718,5.9699,5.9709,5.9727,5.9711,5.9731,5.973,5.9729,5.9621,5.9611,5.9743,5.9743,5.9743,5.9743,5.9743,5.9743,5.9734,5.9771,5.9755,5.979,5.9781,5.9803,5.9805,5.9807,5.9804,5.9827,5.9838,5.9826,5.9816,5.9826,5.9837,5.9831,5.9837,5.9863,5.9852,5.9751,5.9736,5.9722,5.9712,5.9864,5.9864,5.9958,5.9959,5.9959]}]]